Location: Newark
(45.2500°N, 7.5833°E)
Time: 09:24:01
(UTC+00:00)

First-Move - Pass Details

Date: 24 February 2020
Orbit: 576 x 669 km, 97.6° (Epoch: 07 April)

Event Time Altitude Azimuth Distance (km) Brightness Sun altitude
Rises 17:52:15 0° 209° (SSW) 2,897 ? -8.3°
Reaches altitude 10° 17:55:07 10° 230° (SW) 2,016 ? -8.8°
Maximum altitude 17:57:58 17° 270° (W) 1,635 ? -9.3°
Drops below altitude 10° 18:00:52 10° 311° (NW) 2,061 ? -9.8°
Sets 18:03:52 0° 331° (NNW) 2,994 ? -10.4°
